Location: Potomac
(46.8816°N, 113.5795°W)
Time: 22:53:53
(UTC+00:00)

UKube-1 - Pass Details

Date: 03 July 2022
Orbit: 608 x 615 km, 98.4° (Epoch: 07 August)

Event Time Altitude Azimuth Distance (km) Brightness Sun altitude
Rises 04:51:39 0° 24° (NNE) 2,894 ? -10.7°
Reaches altitude 10° 04:54:07 10° 36° (NE) 1,982 ? -10.9°
Maximum altitude 04:57:48 27° 96° (E) 1,175 ? -11.3°
Enters shadow 05:00:14 17° 143° (SE) 1,568 ? -11.6°
